Regional Weather Roundup
Issued by NWS Green Bay, WI

Home | Current Version | Previous Version | Text Only | Print | Product List | Glossary On
Versions: 1 2 3 4 5 6 7 8 9 10 11 12 13 14 15 16 17 18 19 20 21 22 23 24 25 26 27 28 29 30 31 32 33 34 35 36 37 38 39 40 41 42 43 44 45 46 47 48 49 50
000
ASUS43 KGRB 270859
RWRGRB

NORTH-CENTRAL AND NORTHEAST WISCONSIN REGIONAL WEATHER ROUNDUP
NATIONAL WEATHER SERVICE GREEN BAY WI
300 AM CST THU NOV 27 2014

WIZ005-009-010>012-018-019-271000-
NORTH CENTRAL WISCONSIN

CITY           SKY/WX    TMP DP  RH WIND       PRES   REMARKS
IRONWOOD       CLOUDY    12   9  85 NW9       30.28S VSB 1   WCI   0
MANITOWISH WTR NOT AVBL
ARBOR VITAE    NOT AVBL
EAGLE RIVER    NOT AVBL
LAND O LAKES   NOT AVBL
RHINELANDER    FLURRIES  12   7  80 N6        30.23R WCI   3
PHILLIPS       NOT AVBL
ANTIGO         NOT AVBL
TOMAHAWK       NOT AVBL
MERRILL        NOT AVBL
$$

WIZ013-073-271000-
NORTHEAST WISCONSIN

CITY           SKY/WX    TMP DP  RH WIND       PRES   REMARKS
IRON MOUNTAIN  CLOUDY    16   7  67 N13       30.22R WCI   2
MARINETTE      CLOUDY    21  16  79 N9        30.22R
$$

WIZ017-030-035>037-045-271000-
CENTRAL WISCONSIN

CITY           SKY/WX    TMP DP  RH WIND       PRES   REMARKS
MEDFORD        NOT AVBL
WAUSAU         FLURRIES  16  11  80 NW6       30.24R WCI   7
MOSINEE        NOT AVBL
MARSHFIELD     CLOUDY    16  11  80 NW12      30.27R WCI   3
WISC RAPIDS    CLOUDY    18  11  74 NW9       30.29R WCI   7
STEVENS POINT  NOT AVBL
WAUPACA        NOT AVBL
SHAWANO        NOT AVBL
CLINTONVILLE   NOT AVBL
$$

WIZ038-039-048-051-271000-
FOX VALLEY

CITY           SKY/WX    TMP DP  RH WIND       PRES   REMARKS
NWS GREEN BAY  LGT SNOW  24  20  84 N9        30.23R FOG
APPLETON       NOT AVBL
OSHKOSH        CLOUDY    23  18  81 MISG      30.23R
FOND DU LAC    CLOUDY    22  18  85 NW9       30.23R
$$

WIZ022-050-052-271000-
EAST CENTRAL WISCONSIN

CITY           SKY/WX    TMP DP  RH WIND       PRES   REMARKS
STURGEON BAY   CLOUDY    25  19  80 N15       30.20S
MANITOWOC      NOT AVBL
SHEBOYGAN      LGT SNOW  22  19  89 NW6       30.21S FOG
$$

LMZ563-521-522-541>543-271000-
LAKESHORE

STATION/POSITION TIME  TEMP    WIND        PRES    VSBY  WAVE
                       AIR SEA DIR/SP/G                  HT/PER
                 (UTC) (F)     (DEG/KT/KT) (MB)    (MI)  (FT/S)
SHEBOYGAN LKSHOR 0800   23 35  290/  9/ 11 1024.2R
KEWAUNEE LKSHORE 0800   25     330/  8/ 14 1021.8R
NORTHPORT PIER   0800   29     360/ 22/ 27 1022.0R
N MID LAKE BUOY  0800   29 42  350/ 23/ 27 1021.9F         1/ 3
CHAMBERS ISLAND  0800   26     320/ 16/ 20 1022.7R
MENOMINEE LKSHOR 0800   23     300/ 10/ 15 1023.9R
$$


USA.gov is the U.S. government's official web portal to all federal, state and local government web resources and services.